Starlink 5836

operational
NORAD ID: 56386 Int'l Des: 2023-061 Owner: SPXS Country: US Constellation: starlink
LEOCIRCULAR

Starlink 5836について

説明を読み込み中...

リアルタイム位置

3D地球を読み込み中...

次回通過

高度履歴

Altitude vs Time

uPlot chart will show altitude changes over time

軌道要素

1 56386U 23061N 25259.15499627 .00001047 00000-0 92614-4 0 9994
2 56386 43.0040 65.5273 0001376 267.4452 92.6232 15.02532635130501
Epoch: Sep 16, 2025 • Age: 14 hours

現在のステータス

高度 568.7 km
速度 7.58 km/s
衛星直下点 -35.99°S, 34.09°E
打ち上げ日 May 4, 2023
運用期間 2.3 years
タイプ internet

技術仕様

分類 Payload
質量 305.00 kg
乾燥質量 290.00 kg
総質量 305.00 kg
長さ 0.20 m
直径 2.80 m
スパン 9.00 m
形状 Box + pan
製造者 SPXS
バスタイプ Starlink
フェーズステータス In Orbit
所有者/国 SPXS/US

大規模コンステレーション

Loading constellations...